Date String (YYYY-MM-DD hh:mm:ss) UTC,Instrument flags,Ambient pressure (hPa),Sample flow (lpm),Bypass flow (lpm),Sample temperature (°C),Ambient temperature (°C),ASC tube jacket temperature (°C),LED temperature (°C),Box temperature (°C),Sample RH (%),Span deviation,Mass concentration (μg/m³),Mass concentration (μg/m³),Mass concentration (μg/m³)
DateTimeUTC,F1_M11,P_M11,Q1_M11,Q2_M11,T1_M11,T2_M11,T3_M11,T4_M11,T5_M11,U1_M11,ZSPAN_M11,X2_M11,X0_M11,X1_M11
2022-03-28 17:00:00,,0819.9,5.00,0.00,26.7,26.0,00.0,35.6,28.5,06.8,0000.0,0002.39,0009.05,0001.34
2022-03-28 17:01:00,,0819.9,5.00,0.00,26.7,26.0,00.0,35.6,28.5,06.3,0000.0,0002.38,0009.03,0001.34
2022-03-28 17:02:00,,0819.9,4.99,0.00,26.7,26.0,00.0,35.7,28.5,06.3,0000.0,0002.34,0008.43,0001.33
2022-03-28 17:03:00,,0819.9,5.00,0.00,26.7,26.0,00.0,35.7,28.5,06.6,0000.0,0002.34,0007.69,0001.34
2022-03-28 17:04:00,,0819.9,5.00,0.00,26.7,26.0,00.0,35.7,28.5,06.4,0000.0,0002.35,0006.22,0001.34
2022-03-28 17:05:00,,0819.9,5.00,0.00,26.8,26.0,00.0,35.7,28.6,06.8,0000.0,0002.42,0006.39,0001.35
2022-03-28 17:06:00,,0819.9,5.00,0.00,26.8,26.1,00.0,35.7,28.6,06.5,0000.0,0002.50,0006.66,0001.35
2022-03-28 17:07:00,,0819.9,5.00,0.00,26.8,26.1,00.0,35.7,28.6,06.4,0000.0,0002.47,0006.56,0001.35
2022-03-28 17:08:00,,0819.9,5.00,0.00,26.8,26.1,00.0,35.7,28.5,06.2,0000.0,0002.41,0006.33,0001.34
2022-03-28 17:09:00,,0819.9,5.01,0.00,26.8,26.1,00.0,35.7,28.6,06.3,0000.0,0002.40,0006.25,0001.34
2022-03-28 17:10:00,,0819.9,5.00,0.00,26.8,26.0,00.0,35.7,28.6,06.3,0000.0,0002.35,0005.50,0001.33
2022-03-28 17:11:00,,0819.9,5.00,0.00,26.8,26.0,00.0,35.7,28.6,07.0,0000.0,0002.31,0006.20,0001.32
2022-03-28 17:12:00,,0819.9,5.00,0.00,26.8,26.0,00.0,35.7,28.6,06.9,0000.0,0002.33,0006.20,0001.33
2022-03-28 17:13:00,,0819.9,5.00,0.00,26.8,26.1,00.0,35.7,28.6,07.1,0000.0,0002.35,0006.27,0001.34
2022-03-28 17:14:00,,0819.8,5.00,0.00,26.8,26.1,00.0,35.8,28.6,07.1,0000.0,0002.34,0006.06,0001.34
2022-03-28 17:15:00,,0819.9,4.99,0.00,26.8,26.1,00.0,35.8,28.6,06.5,0000.0,0002.31,0007.03,0001.35
2022-03-28 17:16:00,,0819.9,5.00,0.00,26.9,26.1,00.0,35.8,28.7,06.2,0000.0,0002.29,0007.23,0001.34
2022-03-28 17:17:00,,0819.9,5.01,0.00,26.9,26.1,00.0,35.8,28.6,06.0,0000.0,0002.25,0007.26,0001.34
2022-03-28 17:18:00,,0819.9,4.99,0.00,26.9,26.1,00.0,35.8,28.7,06.4,0000.0,0002.31,0007.39,0001.33
2022-03-28 17:19:00,,0819.9,5.00,0.00,26.9,26.2,00.0,35.8,28.7,06.3,0000.0,0002.37,0007.55,0001.32
2022-03-28 17:20:00,,0819.9,5.00,0.00,26.9,26.2,00.0,35.8,28.7,06.4,0000.0,0002.38,0007.90,0001.33
2022-03-28 17:21:00,,0819.9,5.01,0.00,27.0,26.2,00.0,35.8,28.7,06.2,0000.0,0002.40,0007.74,0001.32
2022-03-28 17:22:00,,0819.9,5.01,0.00,27.0,26.2,00.0,35.8,28.8,06.1,0000.0,0002.38,0007.49,0001.31
2022-03-28 17:23:00,,0819.9,5.00,0.00,27.0,26.2,00.0,35.9,28.8,05.9,0000.0,0002.32,0007.52,0001.30
2022-03-28 17:24:00,,0819.9,5.00,0.00,27.0,26.3,00.0,35.9,28.8,05.8,0000.0,0002.31,0007.86,0001.28
2022-03-28 17:25:00,,0819.9,5.00,0.00,27.0,26.3,00.0,35.9,28.8,06.0,0000.0,0002.31,0008.15,0001.26
2022-03-28 17:26:00,,0819.9,4.99,0.00,27.0,26.3,00.0,35.9,28.8,06.1,0000.0,0002.36,0007.65,0001.24
2022-03-28 17:27:00,,0819.9,5.01,0.00,27.1,26.3,00.0,35.9,28.8,06.2,0000.0,0002.36,0007.52,0001.22
2022-03-28 17:28:00,,0819.8,4.99,0.00,27.1,26.3,00.0,35.9,28.8,05.6,0000.0,0002.39,0007.49,0001.22
2022-03-28 17:29:00,,0819.8,4.99,0.00,27.1,26.3,00.0,35.9,28.9,05.4,0000.0,0002.30,0007.77,0001.21
2022-03-28 17:30:00,,0819.8,5.01,0.00,27.1,26.3,00.0,36.0,28.9,05.5,0000.0,0002.19,0007.59,0001.21
2022-03-28 17:31:00,,0819.8,5.00,0.00,27.1,26.3,00.0,36.0,28.9,06.0,0000.0,0002.15,0007.11,0001.19
2022-03-28 17:32:00,,0819.8,4.99,0.00,27.1,26.3,00.0,36.0,28.9,05.9,0000.0,0002.10,0007.23,0001.18
2022-03-28 17:33:00,,0819.8,5.00,0.00,27.2,26.3,00.0,36.0,28.9,05.9,0000.0,0002.12,0007.82,0001.18
2022-03-28 17:34:00,,0819.8,5.01,0.00,27.2,26.3,00.0,36.0,28.9,05.7,0000.0,0002.09,0007.65,0001.17
2022-03-28 17:35:00,,0819.8,5.00,0.00,27.2,26.4,00.0,36.0,29.0,05.7,0000.0,0002.08,0007.46,0001.17
2022-03-28 17:36:00,,0819.8,5.00,0.00,27.2,26.4,00.0,36.0,28.9,05.6,0000.0,0002.03,0006.59,0001.18
2022-03-28 17:37:00,,0819.8,4.99,0.00,27.2,26.4,00.0,36.1,29.0,05.8,0000.0,0002.01,0006.55,0001.16
2022-03-28 17:38:00,,0819.7,5.01,0.00,27.2,26.4,00.0,36.1,29.0,05.5,0000.0,0001.91,0006.28,0001.16
2022-03-28 17:39:00,,0819.7,5.00,0.00,27.2,26.4,00.0,36.1,29.0,05.4,0000.0,0001.84,0006.07,0001.15
2022-03-28 17:40:00,,0819.7,5.01,0.00,27.2,26.5,00.0,36.1,29.0,05.4,0000.0,0001.89,0006.53,0001.16
2022-03-28 17:41:00,,0819.7,4.99,0.00,27.3,26.5,00.0,36.1,29.0,05.7,0000.0,0001.99,0007.44,0001.16
2022-03-28 17:42:00,,0819.7,4.99,0.00,27.3,26.5,00.0,36.1,29.0,05.5,0000.0,0002.05,0008.17,0001.16
2022-03-28 17:43:00,,0819.6,5.00,0.00,27.3,26.5,00.0,36.1,29.1,05.8,0000.0,0002.05,0008.19,0001.17
2022-03-28 17:44:00,,0819.6,4.99,0.00,27.3,26.5,00.0,36.1,29.1,05.5,0000.0,0002.03,0007.36,0001.16
2022-03-28 17:45:00,,0819.6,5.01,0.00,27.3,26.5,00.0,36.2,29.1,05.4,0000.0,0002.08,0007.43,0001.17
2022-03-28 17:46:00,,0819.6,5.00,0.00,27.3,26.5,00.0,36.2,29.0,05.5,0000.0,0002.15,0007.61,0001.16
2022-03-28 17:47:00,,0819.6,4.99,0.00,27.3,26.5,00.0,36.2,29.1,05.4,0000.0,0002.15,0007.72,0001.15
2022-03-28 17:48:00,,0819.6,5.02,0.00,27.3,26.5,00.0,36.2,29.1,05.3,0000.0,0002.14,0008.30,0001.14
2022-03-28 17:49:00,,0819.6,4.99,0.00,27.3,26.5,00.0,36.2,29.1,05.4,0000.0,0002.20,0008.40,0001.14
2022-03-28 17:50:00,,0819.7,4.99,0.00,27.4,26.5,00.0,36.2,29.1,05.4,0000.0,0002.17,0008.38,0001.15
2022-03-28 17:51:00,,0819.6,5.01,0.00,27.4,26.5,00.0,36.2,29.1,05.4,0000.0,0002.13,0008.02,0001.14
2022-03-28 17:52:00,,0819.6,4.99,0.00,27.4,26.6,00.0,36.2,29.2,05.6,0000.0,0002.12,0007.55,0001.14
2022-03-28 17:53:00,,0819.5,4.99,0.00,27.4,26.6,00.0,36.2,29.2,05.6,0000.0,0002.09,0006.59,0001.14
2022-03-28 17:54:00,,0819.5,5.00,0.00,27.4,26.6,00.0,36.3,29.2,05.8,0000.0,0002.06,0006.39,0001.13
2022-03-28 17:55:00,,0819.5,5.01,0.00,27.4,26.6,00.0,36.3,29.2,05.4,0000.0,0002.09,0006.76,0001.14
2022-03-28 17:56:00,,0819.5,5.00,0.00,27.4,26.6,00.0,36.3,29.2,05.5,0000.0,0002.08,0006.81,0001.14
2022-03-28 17:57:00,,0819.5,5.00,0.00,27.4,26.6,00.0,36.3,29.2,05.8,0000.0,0002.07,0006.61,0001.15
2022-03-28 17:58:00,,0819.5,5.00,0.00,27.5,26.6,00.0,36.3,29.2,05.9,0000.0,0002.09,0006.52,0001.16
2022-03-28 17:59:00,,0819.5,5.00,0.00,27.5,26.7,00.0,36.3,29.2,05.9,0000.0,0002.18,0005.69,0001.18
